GW4676 Weather Reports


time (UTC)temp
F
wind
direction
speed
knots
gust
knots
rain 1hr
in
rain 24hr
in
rain mn
in
humidity
%
barometer
mb
20260507211543 57 251 2.6 9.6 0.00 0.03 0.00 42 1008.4
20260507210044 57 269 5.2 11.3 0.00 0.03 0.00 43 1008.3
20260507204552 56 294 1.7 13.9 0.00 0.04 0.00 46 1008.3
20260507203046 58 279 3.5 7.0 0.00 0.04 0.00 43 1008.2
20260507201549 56 299 4.3 9.6 0.00 0.04 0.00 43 1008.2
20260507200039 56 310 1.7 7.8 0.00 0.04 0.00 46 1008.5
20260507194547 57 284 3.5 9.6 0.00 0.06 0.00 45 1008.5
20260507193052 56 269 6.1 13.9 0.00 0.06 0.00 39 1008.7
20260507191542 55 252 4.3 11.3 0.00 0.06 0.00 45 1008.7
20260507190043 55 267 4.3 12.2 0.00 0.06 0.00 44 1009.1
20260507184540 54 305 5.2 13.9 0.00 0.07 0.00 47 1009.2
20260507183043 55 287 2.6 10.4 0.00 0.07 0.00 47 1009.2
20260507181546 54 269 4.3 10.4 0.00 0.07 0.00 45 1009.4
20260507180048 55 294 4.3 14.8 0.00 0.07 0.00 43 1009.3
20260507174550 57 252 3.5 11.3 0.00 0.09 0.00 43 1009.5
20260507173051 56 235 4.3 10.4 0.00 0.09 0.00 47 1009.7
20260507171601 55 281 1.7 5.2 0.00 0.09 0.00 47 1010.0
20260507170051 55 277 2.6 9.6 0.00 0.09 0.00 45 1010.0
20260507164545 54 278 8.7 13.9 0.00 0.11 0.00 45 1010.1
20260507163044 55 221 4.3 7.0 0.00 0.11 0.00 52 1010.4
20260507161550 53 209 7.0 10.4 0.00 0.11 0.00 49 1010.6
20260507160045 52 342 3.5 8.7 0.00 0.11 0.00 50 1010.7
20260507154547 51 286 3.5 9.6 0.00 0.13 0.00 53 1010.8
20260507153045 51 298 2.6 9.6 0.00 0.13 0.00 50 1010.9
20260507151546 52 295 3.5 7.8 0.00 0.13 0.00 53 1011.0
20260507150044 51 261 5.2 12.2 0.00 0.13 0.00 54 1011.3
20260507144557 51 221 5.2 10.4 0.00 0.15 0.00 53 1011.5
20260507143045 51 323 3.5 8.7 0.00 0.15 0.00 58 1011.5
20260507141557 50 240 3.5 7.8 0.00 0.15 0.00 59 1011.9
20260507140041 49 313 2.6 6.1 0.00 0.15 0.00 61 1012.0
20260507134544 48 194 1.7 7.0 0.00 0.18 0.00 69 1012.1
20260507133039 47 200 2.6 5.2 0.00 0.18 0.00 70 1012.2
20260507131536 46 207 0.9 6.1 0.00 0.18 0.00 73 1012.2
20260507130046 44 180 0.9 4.3 0.00 0.18 0.00 76 1012.2
20260507124556 43 198 2.6 4.3 0.00 0.20 0.00 76 1012.2
20260507123051 42 233 2.6 3.5 0.00 0.20 0.00 80 1012.2
20260507121549 41 173 0.9 2.6 0.00 0.20 0.00 85 1012.2
20260507120048 40 180 0.9 1.7 0.00 0.20 0.00 87 1012.1
20260507114550 39 0 0.0 0.0 0.00 0.23 0.00 85 1012.2
20260507113044 39 0 0.0 0.0 0.00 0.23 0.00 84 1012.0
20260507111551 39 0 0.0 0.0 0.00 0.23 0.00 83 1012.0
20260507110053 39 0 0.0 0.0 0.00 0.23 0.00 83 1011.9
20260507104547 38 0 0.0 0.0 0.00 0.27 0.00 83 1011.7
20260507103046 37 0 0.0 0.0 0.00 0.27 0.00 87 1011.7
20260507101547 36 0 0.0 0.0 0.00 0.27 0.00 88 1011.6
20260507100045 37 0 0.0 0.0 0.00 0.27 0.00 85 1011.6
20260507094550 37 0 0.0 0.0 0.00 0.30 0.00 82 1011.5
20260507093043 38 0 0.0 0.0 0.00 0.30 0.00 77 1011.6
20260507091540 38 0 0.0 0.0 0.00 0.30 0.00 77 1011.6
20260507090046 38 0 0.0 0.0 0.00 0.30 0.00 78 1011.7
20260507084545 39 0 0.0 0.0 0.00 0.32 0.00 77 1011.7
20260507083041 39 0 0.0 0.0 0.00 0.32 0.00 77 1011.6
20260507081539 39 0 0.0 0.0 0.00 0.32 0.00 77 1011.8
20260507080040 39 0 0.0 0.0 0.00 0.32 0.00 76 1011.7
20260507074544 40 0 0.0 0.0 0.00 0.36 0.00 76 1011.7
20260507073043 40 0 0.0 0.0 0.00 0.36 0.00 76 1011.8
20260507071540 40 0 0.0 0.0 0.00 0.36 0.00 75 1011.7
20260507070046 40 0 0.0 0.0 0.00 0.36 0.00 76 1011.9
20260507064544 40 0 0.0 0.0 0.00 0.42 0.00 77 1011.8
20260507063050 41 0 0.0 0.0 0.00 0.42 0.00 76 1012.1
20260507061542 42 0 0.0 0.0 0.00 0.42 0.00 76 1011.9
20260507060056 42 0 0.0 0.0 0.00 0.42 0.00 73 1012.0
20260507054546 42 0 0.0 0.0 0.00 0.46 0.00 73 1012.2
20260507053041 42 0 0.9 1.7 0.00 0.46 0.00 71 1012.5
20260507051545 42 0 0.0 0.9 0.00 0.46 0.00 73 1012.6
20260507050044 43 290 0.9 2.6 0.00 0.46 0.00 72 1012.6
20260507044557 43 0 0.0 4.3 0.00 0.46 0.00 72 1012.7
20260507043047 43 300 0.9 2.6 0.00 0.46 0.00 72 1012.5
20260507041548 43 281 0.9 2.6 0.00 0.46 0.00 72 1012.7
20260507040048 43 303 0.9 1.7 0.00 0.46 0.00 72 1012.7
20260507034543 43 302 0.0 1.7 0.00 0.46 0.46 72 1012.4
20260507033040 43 298 0.9 2.6 0.00 0.46 0.46 72 1012.3
20260507031547 43 0 0.0 0.0 0.00 0.46 0.46 71 1012.3
20260507030035 44 0 0.0 0.0 0.00 0.46 0.46 72 1012.1
20260507024552 44 0 0.0 0.0 0.00 0.46 0.46 70 1012.1
20260507023044 44 0 0.0 0.0 0.00 0.46 0.46 67 1012.1
20260507021540 45 0 0.0 0.0 0.01 0.46 0.46 66 1011.9
20260507020050 45 0 0.0 0.0 0.01 0.46 0.46 65 1011.7
20260507014537 45 0 0.0 0.0 0.01 0.46 0.46 63 1011.6
20260507013040 46 0 0.0 0.0 0.00 0.45 0.45 63 1011.8
20260507011544 46 0 0.0 0.0 0.00 0.45 0.45 64 1012.1
20260507010044 46 0 0.0 3.5 0.00 0.45 0.45 64 1012.2
20260507004539 47 313 1.7 4.3 0.00 0.45 0.45 63 1012.0
20260507003037 47 315 1.7 4.3 0.00 0.45 0.45 65 1011.9
20260507001541 48 282 1.7 4.3 0.01 0.45 0.45 65 1011.9
20260507000038 48 291 2.6 7.0 0.01 0.45 0.45 63 1011.9
20260506234542 48 284 1.7 7.0 0.01 0.45 0.45 63 1011.4
20260506233039 49 301 2.6 7.0 0.01 0.45 0.45 63 1011.4
20260506231535 49 273 1.7 6.1 0.00 0.44 0.44 62 1011.0
20260506230040 50 281 2.6 8.7 0.00 0.44 0.44 62 1010.7
20260506224556 50 309 1.7 7.0 0.01 0.44 0.44 67 1010.6
20260506223041 50 333 1.7 6.1 0.01 0.44 0.44 72 1010.5
20260506221540 51 294 1.7 7.0 0.01 0.44 0.44 72 1010.2
20260506220040 51 279 2.6 4.3 0.00 0.43 0.43 71 1010.1
20260506214605 51 315 2.6 7.0 0.01 0.43 0.43 72 1010.0
20260506213045 51 302 2.6 7.8 0.01 0.43 0.43 73 1009.9